Location: Bathurst
(33.4193°S, 149.5775°E)
Time: 02:32:42
(UTC+11:00)

N. Korean satellite - Visible Passes

Search period start: 06 October 2022 00:00
Search period end: 16 October 2022 00:00
Orbit: 426 x 467 km, 97.3° (Epoch: 05 October)

Date Brightness Start Highest point End Pass type
(mag) Time Alt. Az. Time Alt. Az. Time Alt. Az.
06 Oct 7.1 05:23:19 10° NNE 05:26:38 57° ESE 05:30:03 10° S visible
07 Oct 9.6 04:48:30 10° ENE 04:50:49 17° ESE 04:53:09 10° SSE visible
08 Oct 6.4 05:43:46 10° N 05:47:08 66° W 05:50:36 10° SSW visible
09 Oct 8.4 05:08:00 10° NE 05:11:04 32° ESE 05:14:13 10° S visible
10 Oct 10.2 04:34:18 10° E 04:35:10 11° ESE 04:36:03 10° SE visible
11 Oct 6.8 05:27:47 10° NNE 05:31:10 67° ESE 05:34:38 10° S visible
12 Oct 9.4 04:52:29 10° ENE 04:55:02 20° ESE 04:57:37 10° SSE visible
13 Oct 6.5 05:47:42 10° N 05:51:04 57° W 05:54:32 10° SSW visible
14 Oct 8.2 05:11:32 10° NE 05:14:43 36° ESE 05:17:58 10° S visible
15 Oct 10.1 04:37:06 10° E 04:38:30 12° ESE 04:39:54 10° SE visible
